San Francisco, CA

11:51 AM PDT on September 23, 2017 (GMT -0700)
San Francisco International

Weather History for KSFO - June, 2012

Change the Weather History Date:

Friday, June 29, 2012

  Actual Average Record
Temperature  
Mean Temperature 62 °F 63 °F  
Max Temperature 68 °F 72 °F 87 °F (1959)
Min Temperature 56 °F 55 °F 48 °F (1963)
Degree Days  
Heating Degree Days 3 3  
Month to date heating degree days 115 102  
Since 1 June heating degree days 115 102  
Since 1 July heating degree days 2821 2650  
Cooling Degree Days 0 1  
Month to date cooling degree days 16 26  
Year to date cooling degree days 23 45  
Since 1 June cooling degree days 16 26  
Growing Degree Days 12 (Base 50)    
Moisture  
Dew Point 54 °F    
Average Humidity 78    
Maximum Humidity 93    
Minimum Humidity 63    
Precipitation  
Precipitation 0.00 in 0.00 in 0.20 in (1992)
Month to date precipitation 0.09 0.11  
Year to date precipitation 10.46 13.08  
Since 1 July precipitation 13.33  
Sea Level Pressure  
Sea Level Pressure 30.09 in    
Wind  
Wind Speed 13 mph (West)    
Max Wind Speed 23 mph    
Max Gust Speed 28 mph    
Visibility 10 miles    
Events Fog    
T = Trace of Precipitation, MM = Missing Value Source: NWS Daily Summary

Daily Weather History Graph

Daily Weather History Graph

Search for Another Location

Airport or City:

Trip Planner

Search our weather history database for the weather conditions in past years. The results will help you decide how hot, cold, wet, or windy it might be!

Date:

Astronomy

Jun. 29, 2012 Rise Set
Actual Time 5:51 AM PDT 8:34 PM PDT
Civil Twilight 5:19 AM PDT 9:06 PM PDT
Nautical Twilight 4:41 AM PDT 9:44 PM PDT
Astronomical Twilight 3:57 AM PDT 10:28 PM PDT
Moon 4:28 PM PDT (6/29) 2:03 AM PDT (6/29)
Length of Visible Light 15h 46m
Length of Day
14h 43m
Waxing Gibbous, 79% of the Moon is Illuminated
Jun 29
Waxing Gibbous
Jul 3
Full
Jul 10
Last Quarter
Jul 18
New
Jul 26
First Quarter

Hourly Weather History & Observations

Time (PDT) Temp. Dew Point Humidity Pressure Visibility Wind Dir Wind Speed Gust Speed Precip Events Conditions
12:56 AM 57.0 °F 52.0 °F 83% 30.10 in 10.0 mi West 6.9 mph - N/A   Overcast
1:56 AM 57.0 °F 54.0 °F 89% 30.10 in 3.0 mi West 6.9 mph - N/A   Overcast
2:56 AM 57.0 °F 54.0 °F 89% 30.09 in 10.0 mi WSW 9.2 mph - N/A   Overcast
3:56 AM 57.0 °F 53.1 °F 87% 30.09 in 10.0 mi WSW 11.5 mph - N/A   Overcast
4:56 AM 57.0 °F 53.1 °F 87% 30.09 in 10.0 mi West 9.2 mph - N/A   Overcast
5:56 AM 55.9 °F 53.1 °F 90% 30.10 in 9.0 mi West 4.6 mph - N/A   Overcast
6:56 AM 57.9 °F 53.1 °F 84% 30.11 in 10.0 mi West 10.4 mph - N/A   Overcast
7:56 AM 59.0 °F 54.0 °F 83% 30.11 in 7.0 mi West 13.8 mph - N/A   Overcast
8:26 AM 60.8 °F 53.6 °F 77% 30.10 in 10.0 mi West 8.1 mph - N/A   Overcast
8:56 AM 60.1 °F 53.1 °F 78% 30.12 in 10.0 mi West 11.5 mph - N/A   Overcast
9:56 AM 62.1 °F 52.0 °F 70% 30.12 in 10.0 mi West 11.5 mph - N/A   Overcast
10:56 AM 63.0 °F 52.0 °F 67% 30.13 in 10.0 mi West 16.1 mph - N/A   Mostly Cloudy
11:56 AM 64.0 °F 52.0 °F 65% 30.13 in 10.0 mi West 15.0 mph - N/A   Mostly Cloudy
12:56 PM 64.9 °F 53.1 °F 65% 30.13 in 10.0 mi West 12.7 mph - N/A   Mostly Cloudy
1:56 PM 66.9 °F 53.1 °F 61% 30.12 in 10.0 mi West 16.1 mph - N/A   Mostly Cloudy
2:12 PM 66.2 °F 53.6 °F 64% 30.11 in 10.0 mi West 16.1 mph - N/A   Scattered Clouds
2:56 PM 66.9 °F 53.1 °F 61% 30.10 in 10.0 mi West 18.4 mph - N/A   Scattered Clouds
3:42 PM 66.2 °F 53.6 °F 64% 30.09 in 10.0 mi West 16.1 mph - N/A   Scattered Clouds
3:56 PM 66.9 °F 54.0 °F 63% 30.09 in 10.0 mi West 23.0 mph 27.6 mph N/A   Scattered Clouds
4:56 PM 64.9 °F 54.0 °F 68% 30.08 in 10.0 mi West 17.3 mph 23.0 mph N/A   Scattered Clouds
5:56 PM 64.0 °F 54.0 °F 70% 30.07 in 10.0 mi West 17.3 mph - N/A   Scattered Clouds
6:56 PM 63.0 °F 54.0 °F 72% 30.05 in 9.0 mi West 16.1 mph - N/A Fog Mostly Cloudy
7:56 PM 62.1 °F 54.0 °F 75% 30.05 in 9.0 mi West 15.0 mph 20.7 mph N/A Fog Mostly Cloudy
8:56 PM 62.1 °F 54.0 °F 75% 30.05 in 9.0 mi West 15.0 mph - N/A Fog Mostly Cloudy
9:56 PM 60.8 °F 55.4 °F 82% 30.06 in 9.0 mi West 12.7 mph - N/A Fog Mostly Cloudy
10:56 PM 60.1 °F 55.0 °F 83% 30.06 in 10.0 mi West 11.5 mph - N/A   Overcast
11:56 PM 59.0 °F 55.0 °F 87% 30.06 in 10.0 mi West 10.4 mph - N/A   Overcast